Weather History for Rome, NY

Change the Weather History Date:

Tuesday, August 6, 2013

  Actual Average Record
Temperature  
Mean Temperature 63 °F -  
Max Temperature 78 °F 81 °F 90 °F (1989)
Min Temperature 48 °F 59 °F 48 °F (1993)
Degree Days  
Heating Degree Days 2    
Growing Degree Days 13 (Base 50)    
Moisture  
Dew Point 53 °F    
Average Humidity 68    
Maximum Humidity 93    
Minimum Humidity 40    
Precipitation  
Precipitation 0.00 in - - ()
Sea Level Pressure  
Sea Level Pressure 30.08 in    
Wind  
Wind Speed 5 mph (SE)    
Max Wind Speed 9 mph    
Max Gust Speed -    
Visibility 10 miles    
Events      
Averages and records for this station are not official NWS values.
T = Trace of Precipitation, MM = Missing Value Source: NWS Daily Summary

Daily Weather History Graph

Daily Weather History Graph

Search for Another Location

Airport:

Trip Planner

Search our weather history database for the weather conditions in past years. The results will help you decide how hot, cold, wet, or windy it might be!

Date:

Astronomy

Aug. 06, 2013 Rise Set
Actual Time 5:57 AM EDT 8:16 PM EDT
Civil Twilight 5:25 AM EDT 8:48 PM EDT
Nautical Twilight 4:46 AM EDT 9:27 PM EDT
Astronomical Twilight 4:02 AM EDT 10:11 PM EDT
Moon 5:48 AM EDT (8/6) 7:47 PM EDT (8/6)
Length of Visible Light 15h 22m
Length of Day
14h 19m
Waning Crescent, 0% of the Moon is Illuminated
Aug 6
Waning Crescent
Aug 6
New
Aug 14
First Quarter
Aug 20
Full
Aug 28
Last Quarter

Hourly Weather History & Observations

Time (EDT) Temp. Dew Point Humidity Pressure Visibility Wind Dir Wind Speed Gust Speed Precip Events Conditions
12:53 AM 52.0 °F 48.9 °F 89% 30.07 in 10.0 mi ESE 3.5 mph - N/A   Clear
1:53 AM 52.0 °F 48.9 °F 89% 30.07 in 10.0 mi SE 4.6 mph - N/A   Clear
2:53 AM 51.1 °F 48.0 °F 89% 30.07 in 10.0 mi Calm Calm - N/A   Clear
3:53 AM 50.0 °F 48.0 °F 93% 30.09 in 10.0 mi SE 3.5 mph - N/A   Clear
4:53 AM 48.9 °F 46.9 °F 93% 30.09 in 10.0 mi ESE 4.6 mph - N/A   Clear
5:53 AM 48.9 °F 46.9 °F 93% 30.09 in 10.0 mi ESE 5.8 mph - N/A   Clear
6:53 AM 50.0 °F 48.0 °F 93% 30.10 in 10.0 mi ESE 4.6 mph - N/A   Clear
7:53 AM 55.0 °F 50.0 °F 83% 30.11 in 10.0 mi ESE 5.8 mph - N/A   Clear
8:53 AM 61.0 °F 52.0 °F 72% 30.11 in 10.0 mi ESE 5.8 mph - N/A   Clear
9:53 AM 66.0 °F 55.0 °F 68% 30.11 in 10.0 mi SE 4.6 mph - N/A   Clear
10:53 AM 71.1 °F 55.0 °F 57% 30.10 in 10.0 mi South 6.9 mph - N/A   Clear
11:53 AM 73.0 °F 55.0 °F 53% 30.09 in 10.0 mi ESE 6.9 mph - N/A   Clear
12:53 PM 75.0 °F 55.0 °F 50% 30.08 in 10.0 mi ESE 5.8 mph - N/A   Clear
1:53 PM 75.9 °F 55.0 °F 48% 30.07 in 10.0 mi ESE 9.2 mph - N/A   Mostly Cloudy
2:53 PM 77.0 °F 53.1 °F 43% 30.07 in 10.0 mi SSE 9.2 mph - N/A   Partly Cloudy
3:53 PM 78.1 °F 52.0 °F 40% 30.06 in 10.0 mi SE 4.6 mph - N/A   Partly Cloudy
4:53 PM 77.0 °F 54.0 °F 45% 30.06 in 10.0 mi ESE 6.9 mph - N/A   Scattered Clouds
5:53 PM 75.0 °F 55.0 °F 50% 30.07 in 10.0 mi South 6.9 mph - N/A   Overcast
6:53 PM 75.0 °F 55.9 °F 51% 30.07 in 10.0 mi South 8.1 mph - N/A   Mostly Cloudy
7:53 PM 71.1 °F 57.0 °F 61% 30.06 in 10.0 mi ESE 4.6 mph - N/A   Scattered Clouds
8:53 PM 68.0 °F 55.9 °F 65% 30.07 in 10.0 mi ESE 4.6 mph - N/A   Clear
9:53 PM 66.0 °F 55.0 °F 68% 30.07 in 10.0 mi East 6.9 mph - N/A   Mostly Cloudy
10:53 PM 68.0 °F 55.0 °F 63% 30.07 in 10.0 mi East 8.1 mph - N/A   Overcast
11:53 PM 66.0 °F 55.0 °F 68% 30.07 in 10.0 mi ESE 4.6 mph - N/A   Partly Cloudy